Location: Alumbaugh
(37.5976°N, 83.9299°W)
Time: 10:38:45
(UTC+00:00)

Tiangong - Visible Passes

Search period start: 08 December 2022 00:00
Search period end: 18 December 2022 00:00
Orbit: 386 x 392 km, 41.5° (Epoch: 08 December)

Date Brightness Start Highest point End Pass type
(mag) Time Alt. Az. Time Alt. Az. Time Alt. Az.
08 Dec 0.4 00:30:30 10° WNW 00:31:42 21° WNW 00:31:42 21° WNW visible
08 Dec -2.1 23:32:15 10° WNW 23:35:25 63° NNE 23:36:27 37° E visible
10 Dec -1.1 00:10:50 10° WNW 00:13:32 44° SW 00:13:32 44° SW visible
10 Dec -2.1 23:12:15 10° WNW 23:15:26 80° SSW 23:18:21 12° ESE visible
11 Dec 1.3 00:50:08 10° WSW 00:50:41 12° WSW 00:50:41 12° WSW visible
11 Dec 0.0 23:50:49 10° W 23:53:29 25° SSW 23:55:37 13° SSE visible
12 Dec -0.9 22:51:45 10° W 22:54:49 44° SSW 22:57:51 10° SE visible
13 Dec 1.0 23:30:44 10° WSW 23:32:26 14° SW 23:34:08 10° S visible
